EA5HPA-11 Weather Reports


time (UTC)temp
C
wind
direction
speed
KPH
gust
KPH
rain 1hr
cm
rain 24hr
cm
rain mn
cm
humidity
%
barometer
mb
20260507141707 17 320 9.7 0.0 0.00 0.00 0.00 83 1011.0
20260507141206 17 320 9.7 0.0 0.00 0.00 0.00 83 1011.0
20260507140705 17 288 4.8 12.9 0.00 0.00 0.00 82 1011.0
20260507140204 17 174 1.6 11.3 0.00 0.00 0.00 81 1010.0
20260507135703 17 174 1.6 11.3 0.00 0.00 0.00 81 1010.0
20260507135202 17 250 1.6 8.0 0.00 0.00 0.00 82 1010.0
20260507134701 17 250 1.6 8.0 0.00 0.00 0.00 82 1010.0
20260507134200 17 300 8.0 0.0 0.00 0.00 0.00 84 1010.0
20260507133659 17 300 8.0 0.0 0.00 0.00 0.00 83 1010.0
20260507133159 17 300 8.0 0.0 0.00 0.00 0.00 83 1010.0
20260507132658 18 115 12.9 20.9 0.00 0.00 0.00 82 1011.0
20260507132157 18 115 12.9 20.9 0.00 0.00 0.00 82 1011.0
20260507131656 18 115 12.9 20.9 0.00 0.00 0.00 80 1011.0
20260507131155 18 115 12.9 20.9 0.00 0.00 0.00 80 1011.0
20260507130654 18 115 12.9 20.9 0.00 0.00 0.00 79 1011.0
20260507130153 18 115 12.9 20.9 0.00 0.00 0.00 79 1011.0
20260507125652 18 115 12.9 20.9 0.00 0.00 0.00 74 1011.0
20260507125151 18 115 12.9 20.9 0.00 0.00 0.00 74 1011.0
20260507124651 19 115 12.9 20.9 0.00 0.00 0.00 74 1011.0
20260507124150 19 115 12.9 20.9 0.00 0.00 0.00 74 1011.0
20260507123649 19 115 12.9 20.9 0.00 0.00 0.00 73 1011.0
20260507123148 19 115 12.9 20.9 0.00 0.00 0.00 73 1011.0
20260507122647 19 115 12.9 20.9 0.00 0.00 0.00 73 1011.0
20260507122146 19 115 12.9 20.9 0.00 0.00 0.00 73 1011.0
20260507121645 19 115 12.9 20.9 0.00 0.00 0.00 73 1011.0
20260507121144 19 115 12.9 20.9 0.00 0.00 0.00 72 1011.0
20260507120644 19 115 12.9 20.9 0.00 0.00 0.00 73 1011.0
20260507120143 19 115 12.9 20.9 0.00 0.00 0.00 73 1011.0
20260507115642 19 115 12.9 20.9 0.00 0.00 0.00 73 1011.0
20260507115141 19 115 12.9 20.9 0.00 0.00 0.00 73 1011.0
20260507114640 19 115 12.9 20.9 0.00 0.00 0.00 73 1011.0
20260507114139 18 115 12.9 20.9 0.00 0.00 0.00 74 1011.0
20260507113638 18 115 12.9 20.9 0.00 0.00 0.00 74 1011.0
20260507113137 18 115 12.9 20.9 0.00 0.00 0.00 74 1011.0
20260507112637 18 115 12.9 20.9 0.00 0.00 0.00 74 1011.0
20260507112135 18 115 12.9 20.9 0.00 0.00 0.00 74 1011.0
20260507111635 18 111 11.3 17.7 0.00 0.00 0.00 75 1012.0
20260507111134 18 111 11.3 17.7 0.00 0.00 0.00 75 1012.0
20260507110633 18 126 8.0 17.7 0.00 0.00 0.00 76 1011.0
20260507110132 18 126 8.0 17.7 0.00 0.00 0.00 76 1011.0
20260507105631 18 68 12.9 24.1 0.00 0.00 0.00 74 1011.0
20260507105130 18 68 12.9 24.1 0.00 0.00 0.00 74 1011.0
20260507104629 18 68 12.9 24.1 0.00 0.00 0.00 73 1011.0
20260507104128 18 68 12.9 24.1 0.00 0.00 0.00 73 1011.0
20260507103627 18 68 12.9 24.1 0.00 0.00 0.00 73 1011.0
20260507103127 18 68 12.9 24.1 0.00 0.00 0.00 73 1011.0
20260507102626 18 68 12.9 24.1 0.00 0.00 0.00 74 1011.0
20260507102125 18 68 12.9 24.1 0.00 0.00 0.00 74 1011.0
20260507101624 18 68 12.9 24.1 0.00 0.00 0.00 73 1011.0
20260507101123 18 68 12.9 24.1 0.00 0.00 0.00 73 1011.0
20260507100622 18 68 12.9 24.1 0.00 0.00 0.00 73 1011.0
20260507100121 18 68 12.9 24.1 0.00 0.00 0.00 73 1011.0
20260507095620 18 105 11.3 20.9 0.00 0.00 0.00 74 1011.0
20260507095119 18 105 11.3 20.9 0.00 0.00 0.00 74 1011.0
20260507094619 18 105 11.3 20.9 0.00 0.00 0.00 75 1011.0
20260507094118 18 105 11.3 20.9 0.00 0.00 0.00 75 1011.0
20260507093617 18 105 11.3 20.9 0.00 0.00 0.00 76 1011.0
20260507093116 18 105 11.3 20.9 0.00 0.00 0.00 76 1011.0
20260507092615 18 105 11.3 20.9 0.00 0.00 0.00 77 1012.0
20260507092114 18 105 11.3 20.9 0.00 0.00 0.00 77 1012.0
20260507091613 17 105 11.3 20.9 0.00 0.00 0.00 78 1012.0
20260507091112 17 105 11.3 20.9 0.00 0.00 0.00 78 1012.0
20260507090612 17 105 11.3 20.9 0.00 0.00 0.00 78 1012.0
20260507090111 17 3 4.8 8.0 0.00 0.00 0.00 79 1012.0
20260507085610 17 3 4.8 8.0 0.00 0.00 0.00 79 1012.0
20260507085109 17 3 4.8 8.0 0.00 0.00 0.00 80 1012.0
20260507084608 17 3 4.8 8.0 0.00 0.00 0.00 80 1012.0
20260507084107 17 3 4.8 8.0 0.00 0.00 0.00 80 1012.0
20260507083606 17 3 4.8 8.0 0.00 0.00 0.00 79 1012.0
20260507083105 17 3 4.8 8.0 0.00 0.00 0.00 78 1012.0
20260507082604 17 3 4.8 8.0 0.00 0.00 0.00 78 1012.0
20260507082104 17 3 4.8 8.0 0.00 0.00 0.00 77 1012.0
20260507081603 17 3 4.8 8.0 0.00 0.00 0.00 77 1012.0
20260507081102 17 3 4.8 8.0 0.00 0.00 0.00 77 1012.0
20260507080601 17 3 4.8 8.0 0.00 0.00 0.00 77 1012.0
20260507080100 17 3 4.8 8.0 0.00 0.00 0.00 76 1012.0
20260507075559 17 3 4.8 8.0 0.00 0.00 0.00 76 1012.0
20260507075058 17 3 4.8 8.0 0.00 0.00 0.00 76 1012.0
20260507074557 17 3 4.8 8.0 0.00 0.00 0.00 76 1012.0
20260507074056 17 3 4.8 8.0 0.00 0.00 0.00 76 1012.0
20260507073556 17 3 4.8 8.0 0.00 0.00 0.00 76 1011.0
20260507073055 17 3 4.8 8.0 0.00 0.00 0.00 76 1011.0
20260507072554 17 3 4.8 8.0 0.00 0.00 0.00 76 1011.0
20260507072053 17 3 4.8 8.0 0.00 0.00 0.00 76 1011.0
20260507071552 16 3 4.8 8.0 0.00 0.00 0.00 78 1011.0
20260507071051 16 3 4.8 8.0 0.00 0.00 0.00 78 1011.0
20260507070550 16 3 4.8 8.0 0.00 0.00 0.00 78 1011.0
20260507070049 16 3 4.8 8.0 0.00 0.00 0.00 78 1011.0
20260507065549 16 3 4.8 8.0 0.00 0.00 0.00 79 1011.0
20260507065048 16 3 4.8 8.0 0.00 0.00 0.00 79 1011.0
20260507064547 15 3 4.8 8.0 0.00 0.00 0.00 79 1011.0
20260507064046 15 3 4.8 8.0 0.00 0.00 0.00 79 1011.0
20260507063545 15 3 4.8 8.0 0.00 0.00 0.00 79 1011.0
20260507063044 15 3 4.8 8.0 0.00 0.00 0.00 79 1011.0
20260507062543 15 3 4.8 8.0 0.00 0.00 0.00 80 1011.0
20260507062042 15 3 4.8 8.0 0.00 0.00 0.00 80 1011.0
20260507061542 15 3 4.8 8.0 0.00 0.00 0.00 82 1011.0
20260507061041 15 3 4.8 8.0 0.00 0.00 0.00 82 1011.0
20260507060540 15 3 4.8 8.0 0.00 0.00 0.00 82 1011.0
20260507060039 14 3 4.8 8.0 0.00 0.00 0.00 82 1011.0
20260507055538 14 3 4.8 8.0 0.00 0.00 0.00 82 1011.0
20260507055037 14 3 4.8 8.0 0.00 0.00 0.00 82 1011.0
20260507054536 14 3 4.8 8.0 0.00 0.00 0.00 82 1011.0
20260507054036 14 3 4.8 8.0 0.00 0.00 0.00 82 1011.0
20260507053535 14 3 4.8 8.0 0.00 0.00 0.00 82 1011.0
20260507053034 15 3 4.8 8.0 0.00 0.00 0.00 81 1011.0
20260507052533 15 3 4.8 8.0 0.00 0.00 0.00 81 1011.0
20260507052032 15 3 4.8 8.0 0.00 0.00 0.00 82 1011.0
20260507051531 15 3 4.8 8.0 0.00 0.00 0.00 82 1011.0
20260507051030 15 3 4.8 8.0 0.00 0.00 0.00 82 1011.0
20260507050529 15 3 4.8 8.0 0.00 0.00 0.00 82 1011.0
20260507050029 15 3 4.8 8.0 0.00 0.00 0.00 82 1011.0
20260507045528 15 3 4.8 8.0 0.00 0.00 0.00 82 1011.0
20260507045027 15 3 4.8 8.0 0.00 0.00 0.00 83 1011.0
20260507044526 15 3 4.8 8.0 0.00 0.00 0.00 83 1011.0
20260507044025 15 3 4.8 8.0 0.00 0.00 0.00 83 1011.0
20260507043524 15 3 4.8 8.0 0.00 0.00 0.00 83 1011.0
20260507043023 15 3 4.8 8.0 0.00 0.00 0.00 83 1010.0
20260507042522 15 3 4.8 8.0 0.00 0.00 0.00 83 1010.0
20260507042021 15 3 4.8 8.0 0.00 0.00 0.00 84 1010.0
20260507041521 15 3 4.8 8.0 0.00 0.00 0.00 84 1010.0
20260507041020 15 3 4.8 8.0 0.00 0.00 0.00 84 1010.0
20260507040519 15 3 4.8 8.0 0.00 0.00 0.00 84 1010.0
20260507040018 15 3 4.8 8.0 0.00 0.00 0.00 84 1010.0
20260507035016 15 3 4.8 8.0 0.00 0.00 0.00 84 1011.0
20260507034515 15 3 4.8 8.0 0.00 0.00 0.00 84 1011.0
20260507034014 15 3 4.8 8.0 0.00 0.00 0.00 84 1011.0
20260507033514 15 3 4.8 8.0 0.00 0.00 0.00 84 1011.0
20260507033013 15 3 4.8 8.0 0.00 0.00 0.00 84 1011.0
20260507032512 15 3 4.8 8.0 0.00 0.00 0.00 84 1011.0
20260507032011 15 3 4.8 8.0 0.00 0.00 0.00 84 1011.0
20260507031510 15 3 4.8 8.0 0.00 0.00 0.00 84 1011.0
20260507031009 15 3 4.8 8.0 0.00 0.00 0.00 84 1011.0
20260507030508 15 3 4.8 8.0 0.00 0.00 0.00 84 1011.0
20260507030007 15 3 4.8 8.0 0.00 0.00 0.00 84 1011.0
20260507025506 15 3 4.8 8.0 0.00 0.00 0.00 84 1011.0
20260507025005 15 3 4.8 8.0 0.00 0.00 0.00 84 1011.0
20260507024505 15 3 4.8 8.0 0.00 0.00 0.00 84 1011.0
20260507024004 15 3 4.8 8.0 0.00 0.00 0.00 84 1011.0
20260507023503 15 3 4.8 8.0 0.00 0.00 0.00 84 1010.0
20260507023002 15 3 4.8 8.0 0.00 0.00 0.00 84 1010.0
20260507022501 15 3 4.8 8.0 0.00 0.00 0.00 84 1010.0
20260507022000 15 3 4.8 8.0 0.00 0.00 0.00 84 1010.0
20260507021459 15 3 4.8 8.0 0.00 0.00 0.00 84 1010.0
20260507020958 15 3 4.8 8.0 0.00 0.00 0.00 84 1010.0
20260507020457 15 3 4.8 8.0 0.00 0.00 0.00 84 1010.0
20260507015957 16 3 4.8 8.0 0.00 0.00 0.00 83 1010.0
20260507015456 16 3 4.8 8.0 0.00 0.00 0.00 83 1010.0
20260507014955 16 3 4.8 8.0 0.00 0.00 0.00 83 1010.0
20260507014454 16 3 4.8 8.0 0.00 0.00 0.00 83 1010.0
20260507013953 16 3 4.8 8.0 0.00 0.00 0.00 83 1010.0
20260507013452 16 3 4.8 8.0 0.00 0.00 0.00 83 1010.0
20260507012951 16 3 4.8 8.0 0.00 0.00 0.00 83 1011.0
20260507012450 16 3 4.8 8.0 0.00 0.00 0.00 83 1011.0
20260507011949 16 3 4.8 8.0 0.00 0.00 0.00 83 1011.0
20260507011449 16 3 4.8 8.0 0.00 0.00 0.00 83 1011.0
20260507010948 16 3 4.8 8.0 0.00 0.00 0.00 83 1011.0
20260507010447 16 3 4.8 8.0 0.00 0.00 0.00 83 1011.0
20260507005946 16 3 4.8 8.0 0.00 0.00 0.00 83 1011.0
20260507005445 16 3 4.8 8.0 0.00 0.00 0.00 83 1011.0
20260507004944 16 3 4.8 8.0 0.00 0.00 0.00 83 1011.0
20260507004443 16 3 4.8 8.0 0.00 0.00 0.00 83 1011.0
20260507003942 16 3 4.8 8.0 0.00 0.00 0.00 83 1011.0
20260507003442 16 3 4.8 8.0 0.00 0.00 0.00 83 1011.0
20260507002941 16 3 4.8 8.0 0.00 0.00 0.00 83 1011.0
20260507002440 16 3 4.8 8.0 0.00 0.00 0.00 83 1011.0
20260507001939 16 3 4.8 8.0 0.00 0.00 0.00 83 1011.0
20260507001438 16 3 4.8 8.0 0.00 0.00 0.00 83 1011.0
20260507000937 16 3 4.8 8.0 0.00 0.00 0.00 83 1011.0
20260507000436 16 3 4.8 8.0 0.00 0.00 0.00 83 1011.0
20260506235935 16 3 4.8 8.0 0.00 0.00 0.00 83 1011.0
20260506235434 16 3 4.8 8.0 0.00 0.00 0.00 83 1011.0
20260506234934 16 3 4.8 8.0 0.00 0.00 0.00 83 1011.0
20260506234433 16 3 4.8 8.0 0.00 0.00 0.00 83 1011.0
20260506233932 16 3 4.8 8.0 0.00 0.00 0.00 83 1011.0
20260506233431 16 3 4.8 8.0 0.00 0.00 0.00 83 1012.0
20260506232930 16 3 4.8 8.0 0.00 0.00 0.00 83 1012.0
20260506232429 16 3 4.8 8.0 0.00 0.00 0.00 83 1012.0
20260506231928 16 3 4.8 8.0 0.00 0.00 0.00 83 1012.0
20260506231427 16 23 1.6 6.4 0.00 0.00 0.00 83 1012.0
20260506230926 16 23 1.6 6.4 0.00 0.00 0.00 83 1012.0
20260506230426 16 23 1.6 6.4 0.00 0.00 0.00 83 1012.0
20260506225925 16 19 1.6 6.4 0.00 0.00 0.00 83 1012.0
20260506225424 16 19 1.6 6.4 0.00 0.00 0.00 83 1012.0
20260506181205 19 80 22.5 0.0 0.00 0.00 0.00 69 1011.0
20260506180704 19 80 22.5 0.0 0.00 0.00 0.00 69 1011.0
20260506180203 19 80 22.5 0.0 0.00 0.00 0.00 68 1011.0
20260506175702 19 80 22.5 0.0 0.00 0.00 0.00 68 1011.0
20260506175201 19 80 22.5 0.0 0.00 0.00 0.00 68 1011.0
20260506174700 19 80 22.5 0.0 0.00 0.00 0.00 68 1011.0
20260506173658 19 80 22.5 0.0 0.00 0.00 0.00 68 1011.0
20260506173157 19 80 22.5 0.0 0.00 0.00 0.00 68 1011.0
20260506172656 19 80 22.5 0.0 0.00 0.00 0.00 68 1010.0
20260506172155 20 80 22.5 0.0 0.00 0.00 0.00 68 1010.0
20260506171654 20 80 22.5 0.0 0.00 0.00 0.00 68 1010.0
20260506171153 20 80 22.5 0.0 0.00 0.00 0.00 69 1010.0
20260506170652 20 80 22.5 0.0 0.00 0.00 0.00 69 1010.0
20260506170151 20 80 22.5 0.0 0.00 0.00 0.00 66 1010.0
20260506165650 20 80 22.5 0.0 0.00 0.00 0.00 66 1010.0
20260506165149 20 80 22.5 0.0 0.00 0.00 0.00 66 1010.0
20260506164648 20 80 22.5 0.0 0.00 0.00 0.00 66 1010.0
20260506164147 20 80 22.5 0.0 0.00 0.00 0.00 67 1010.0
20260506163646 20 80 22.5 0.0 0.00 0.00 0.00 67 1010.0
20260506163145 20 80 22.5 0.0 0.00 0.00 0.00 67 1010.0
20260506162644 20 80 22.5 0.0 0.00 0.00 0.00 67 1010.0
20260506162143 20 80 22.5 0.0 0.00 0.00 0.00 68 1010.0
20260506161642 20 80 22.5 0.0 0.00 0.00 0.00 68 1010.0
20260506161141 20 70 20.9 0.0 0.00 0.00 0.00 70 1010.0
20260506160640 20 70 20.9 0.0 0.00 0.00 0.00 70 1010.0
20260506160139 20 70 20.9 0.0 0.00 0.00 0.00 70 1010.0
20260506155638 20 70 20.9 0.0 0.00 0.00 0.00 70 1010.0
20260506155137 20 70 20.9 0.0 0.00 0.00 0.00 69 1010.0
20260506154637 20 70 20.9 0.0 0.00 0.00 0.00 69 1010.0
20260506154135 21 70 20.9 0.0 0.00 0.00 0.00 68 1010.0
20260506153635 21 70 20.9 0.0 0.00 0.00 0.00 68 1010.0
20260506153133 21 70 20.9 0.0 0.00 0.00 0.00 67 1010.0
20260506152132 21 70 20.9 0.0 0.00 0.00 0.00 67 1010.0
20260506151631 21 70 20.9 0.0 0.00 0.00 0.00 67 1010.0
20260506151130 21 70 20.9 0.0 0.00 0.00 0.00 67 1010.0
20260506150629 21 70 20.9 0.0 0.00 0.00 0.00 67 1010.0
20260506150128 21 70 20.9 0.0 0.00 0.00 0.00 67 1010.0
20260506145627 21 70 20.9 0.0 0.00 0.00 0.00 66 1010.0
20260506145126 21 70 20.9 0.0 0.00 0.00 0.00 66 1010.0
20260506144625 21 70 20.9 0.0 0.00 0.00 0.00 66 1010.0
20260506144124 21 70 20.9 0.0 0.00 0.00 0.00 66 1010.0
20260506143623 21 70 20.9 0.0 0.00 0.00 0.00 64 1010.0
20260506143122 21 70 20.9 0.0 0.00 0.00 0.00 60 1010.0
20260506142621 21 70 20.9 0.0 0.00 0.00 0.00 60 1010.0
20260506142120 21 70 20.9 0.0 0.00 0.00 0.00 60 1010.0